Time,TemperatureF,DewpointF,PressureIn,WindDirection,WindDirectionDegrees,WindSpeedMPH,WindSpeedGustMPH,Humidity,HourlyPrecipIn,Conditions,Clouds,dailyrainin,SoftwareType,DateUTC
2013-01-05 00:00:00,35.1,20.5,29.72,WNW,293,4.9,4.9,55,0.00,,,0.00,WUHU216HW,2013-01-05 05:00:00,
2013-01-05 00:01:00,35.1,20.5,29.72,WNW,293,4.9,4.9,55,0.00,,,0.00,WUHU216HW,2013-01-05 05:01:00,
2013-01-05 00:06:00,35.1,20.5,29.72,WNW,293,4.9,4.9,55,0.00,,,0.00,WUHU216HW,2013-01-05 05:06:00,
2013-01-05 00:30:00,34.9,20.3,29.71,NW,315,7.6,7.6,55,0.00,,,0.00,WUHU216HW,2013-01-05 05:30:00,
2013-01-05 00:35:00,34.9,20.3,29.71,NW,315,7.6,7.6,55,0.00,,,0.00,WUHU216HW,2013-01-05 05:35:00,
2013-01-05 00:59:00,34.7,20.6,29.72,WNW,293,5.8,5.8,56,0.00,,,0.00,WUHU216HW,2013-01-05 05:59:00,
2013-01-05 01:04:00,34.7,20.6,29.72,WNW,293,5.8,5.8,56,0.00,,,0.00,WUHU216HW,2013-01-05 06:04:00,
2013-01-05 01:29:00,34.6,20.4,29.73,WNW,293,9.8,9.8,56,0.00,,,0.00,WUHU216HW,2013-01-05 06:29:00,
2013-01-05 01:34:00,34.6,20.4,29.73,WNW,293,9.8,9.8,56,0.00,,,0.00,WUHU216HW,2013-01-05 06:34:00,
2013-01-05 01:59:00,34.4,20.3,29.73,NW,315,7.4,7.4,56,0.00,,,0.00,WUHU216HW,2013-01-05 06:59:00,
2013-01-05 02:04:00,34.4,20.3,29.73,NW,315,7.4,7.4,56,0.00,,,0.00,WUHU216HW,2013-01-05 07:04:00,
2013-01-05 02:29:00,34.2,20.1,29.76,WNW,293,3.4,3.4,56,0.00,,,0.00,WUHU216HW,2013-01-05 07:29:00,
2013-01-05 02:34:00,34.2,20.1,29.76,WNW,293,3.4,3.4,56,0.00,,,0.00,WUHU216HW,2013-01-05 07:34:00,
2013-01-05 02:59:00,34.2,20.5,29.77,WNW,293,11.4,11.4,57,0.00,,,0.00,WUHU216HW,2013-01-05 07:59:00,
2013-01-05 03:04:00,34.2,20.5,29.77,WNW,293,11.4,11.4,57,0.00,,,0.00,WUHU216HW,2013-01-05 08:04:00,
2013-01-05 03:30:00,33.5,20.3,29.78,WNW,293,10.3,10.3,58,0.00,,,0.00,WUHU216HW,2013-01-05 08:30:00,
2013-01-05 03:35:00,33.5,20.3,29.78,WNW,293,10.3,10.3,58,0.00,,,0.00,WUHU216HW,2013-01-05 08:35:00,
2013-01-05 03:59:00,33.3,20.1,29.79,West,270,10.3,10.3,58,0.00,,,0.00,WUHU216HW,2013-01-05 08:59:00,
2013-01-05 04:04:00,33.3,20.1,29.79,West,270,10.3,10.3,58,0.00,,,0.00,WUHU216HW,2013-01-05 09:04:00,
2013-01-05 04:30:00,32.9,20.2,29.79,NW,315,8.5,8.5,59,0.00,,,0.00,WUHU216HW,2013-01-05 09:30:00,
2013-01-05 04:35:00,32.9,20.2,29.79,NW,315,8.5,8.5,59,0.00,,,0.00,WUHU216HW,2013-01-05 09:35:00,
2013-01-05 04:59:00,32.4,20.2,29.81,NW,315,4.7,4.7,60,0.00,,,0.00,WUHU216HW,2013-01-05 09:59:00,
2013-01-05 05:05:00,32.4,20.2,29.81,NW,315,4.7,4.7,60,0.00,,,0.00,WUHU216HW,2013-01-05 10:05:00,
2013-01-05 05:29:00,32.0,20.2,29.83,NNW,338,0.4,0.4,61,0.00,,,0.00,WUHU216HW,2013-01-05 10:29:00,
2013-01-05 05:34:00,32.0,20.2,29.83,NNW,338,0.4,0.4,61,0.00,,,0.00,WUHU216HW,2013-01-05 10:34:00,
2013-01-05 05:59:00,31.3,19.4,29.85,WNW,293,4.7,4.7,61,0.00,,,0.00,WUHU216HW,2013-01-05 10:59:00,
2013-01-05 06:04:00,31.3,19.4,29.85,WNW,293,4.7,4.7,61,0.00,,,0.00,WUHU216HW,2013-01-05 11:04:00,
2013-01-05 06:30:00,31.3,19.8,29.86,WNW,293,5.8,5.8,62,0.00,,,0.00,WUHU216HW,2013-01-05 11:30:00,
2013-01-05 06:35:00,31.3,19.8,29.86,WNW,293,5.8,5.8,62,0.00,,,0.00,WUHU216HW,2013-01-05 11:35:00,
2013-01-05 06:59:00,31.1,20.0,29.86,WNW,293,1.3,1.3,63,0.00,,,0.00,WUHU216HW,2013-01-05 11:59:00,
2013-01-05 07:04:00,31.1,20.0,29.86,WNW,293,1.3,1.3,63,0.00,,,0.00,WUHU216HW,2013-01-05 12:04:00,
2013-01-05 07:30:00,31.1,20.0,29.87,SSW,203,1.3,1.3,63,0.00,,,0.00,WUHU216HW,2013-01-05 12:30:00,
2013-01-05 07:35:00,31.1,20.0,29.87,SSW,203,1.3,1.3,63,0.00,,,0.00,WUHU216HW,2013-01-05 12:35:00,
2013-01-05 08:00:00,31.1,20.0,29.87,NW,315,1.3,1.3,63,0.00,,,0.00,WUHU216HW,2013-01-05 13:00:00,
2013-01-05 08:05:00,31.1,20.0,29.87,NW,315,1.3,1.3,63,0.00,,,0.00,WUHU216HW,2013-01-05 13:05:00,
2013-01-05 08:30:00,32.9,21.3,29.91,WNW,293,3.4,3.4,62,0.00,,,0.00,WUHU216HW,2013-01-05 13:30:00,
2013-01-05 08:35:00,32.9,21.3,29.91,WNW,293,3.4,3.4,62,0.00,,,0.00,WUHU216HW,2013-01-05 13:35:00,
2013-01-05 09:00:00,33.7,21.6,29.90,WNW,293,7.2,7.2,61,0.00,,,0.00,WUHU216HW,2013-01-05 14:00:00,
2013-01-05 09:05:00,33.7,21.6,29.90,WNW,293,7.2,7.2,61,0.00,,,0.00,WUHU216HW,2013-01-05 14:05:00,
2013-01-05 09:30:00,35.5,23.0,29.89,SW,225,1.8,1.8,60,0.00,,,0.00,WUHU216HW,2013-01-05 14:30:00,
2013-01-05 09:35:00,35.5,23.0,29.89,SW,225,1.8,1.8,60,0.00,,,0.00,WUHU216HW,2013-01-05 14:35:00,
2013-01-05 10:00:00,38.0,24.5,29.91,WNW,293,3.6,3.6,58,0.00,,,0.00,WUHU216HW,2013-01-05 15:00:00,
2013-01-05 10:05:00,38.0,24.5,29.91,WNW,293,3.6,3.6,58,0.00,,,0.00,WUHU216HW,2013-01-05 15:05:00,
2013-01-05 10:30:00,40.7,23.9,29.93,WNW,293,5.4,5.4,51,0.00,,,0.00,WUHU216HW,2013-01-05 15:30:00,
2013-01-05 10:35:00,40.7,23.9,29.93,WNW,293,5.4,5.4,51,0.00,,,0.00,WUHU216HW,2013-01-05 15:35:00,
2013-01-05 10:59:00,47.3,27.5,29.92,NNW,338,0.4,0.4,46,0.00,,,0.00,WUHU216HW,2013-01-05 15:59:00,
2013-01-05 11:04:00,47.3,27.5,29.92,NNW,338,0.4,0.4,46,0.00,,,0.00,WUHU216HW,2013-01-05 16:04:00,
2013-01-05 11:29:00,46.1,25.7,29.90,WNW,293,4.3,4.3,45,0.00,,,0.00,WUHU216HW,2013-01-05 16:29:00,
2013-01-05 11:35:00,46.1,25.7,29.90,WNW,293,4.3,4.3,45,0.00,,,0.00,WUHU216HW,2013-01-05 16:35:00,
2013-01-05 11:59:00,46.1,25.7,29.89,NNW,338,1.6,1.6,45,0.00,,,0.00,WUHU216HW,2013-01-05 16:59:00,
2013-01-05 12:04:00,46.1,25.7,29.89,NNW,338,1.6,1.6,45,0.00,,,0.00,WUHU216HW,2013-01-05 17:04:00,
2013-01-05 12:29:00,48.8,27.2,29.87,SW,225,1.1,1.1,43,0.00,,,0.00,WUHU216HW,2013-01-05 17:29:00,
2013-01-05 12:34:00,48.8,27.2,29.87,SW,225,1.1,1.1,43,0.00,,,0.00,WUHU216HW,2013-01-05 17:34:00,
2013-01-05 12:59:00,50.8,27.8,29.85,WNW,293,4.5,4.5,41,0.00,,,0.00,WUHU216HW,2013-01-05 17:59:00,
2013-01-05 13:04:00,50.8,27.8,29.85,WNW,293,4.5,4.5,41,0.00,,,0.00,WUHU216HW,2013-01-05 18:04:00,
2013-01-05 13:30:00,53.6,29.9,29.84,West,270,2.5,2.5,40,0.00,,,0.00,WUHU216HW,2013-01-05 18:30:00,
2013-01-05 13:35:00,53.6,29.9,29.84,West,270,2.5,2.5,40,0.00,,,0.00,WUHU216HW,2013-01-05 18:35:00,
2013-01-05 13:59:00,51.1,25.6,29.83,SW,225,2.5,2.5,37,0.00,,,0.00,WUHU216HW,2013-01-05 18:59:00,
2013-01-05 14:04:00,51.1,25.6,29.83,SW,225,2.5,2.5,37,0.00,,,0.00,WUHU216HW,2013-01-05 19:04:00,
2013-01-05 14:30:00,52.2,26.6,29.83,SE,135,2.9,2.9,37,0.00,,,0.00,WUHU216HW,2013-01-05 19:30:00,
2013-01-05 14:34:00,52.2,26.6,29.83,SE,135,2.9,2.9,37,0.00,,,0.00,WUHU216HW,2013-01-05 19:34:00,
2013-01-05 14:59:00,55.3,28.5,29.82,SSW,203,0.2,0.2,36,0.00,,,0.00,WUHU216HW,2013-01-05 19:59:00,
2013-01-05 15:05:00,55.3,28.5,29.82,SSW,203,0.2,0.2,36,0.00,,,0.00,WUHU216HW,2013-01-05 20:05:00,
2013-01-05 15:30:00,54.5,26.6,29.81,SE,135,1.1,1.1,34,0.00,,,0.00,WUHU216HW,2013-01-05 20:30:00,
2013-01-05 15:35:00,54.5,26.6,29.81,SE,135,1.1,1.1,34,0.00,,,0.00,WUHU216HW,2013-01-05 20:35:00,
2013-01-05 15:59:00,52.7,26.4,29.82,SE,135,1.6,1.6,36,0.00,,,0.00,WUHU216HW,2013-01-05 20:59:00,
2013-01-05 16:04:00,52.7,26.4,29.82,SE,135,1.6,1.6,36,0.00,,,0.00,WUHU216HW,2013-01-05 21:04:00,
2013-01-05 16:30:00,51.5,27.3,29.81,SE,135,0.0,0.0,39,0.00,,,0.00,WUHU216HW,2013-01-05 21:30:00,
2013-01-05 16:34:00,51.5,27.3,29.81,SE,135,0.0,0.0,39,0.00,,,0.00,WUHU216HW,2013-01-05 21:34:00,
2013-01-05 16:59:00,45.5,24.2,29.80,ESE,113,0.0,0.0,43,0.00,,,0.00,WUHU216HW,2013-01-05 21:59:00,
2013-01-05 17:04:00,45.5,24.2,29.80,ESE,113,0.0,0.0,43,0.00,,,0.00,WUHU216HW,2013-01-05 22:04:00,
2013-01-05 17:30:00,40.9,21.5,29.81,SE,135,0.0,0.0,46,0.00,,,0.00,WUHU216HW,2013-01-05 22:30:00,
2013-01-05 17:35:00,40.9,21.5,29.81,SE,135,0.0,0.0,46,0.00,,,0.00,WUHU216HW,2013-01-05 22:35:00,
2013-01-05 17:59:00,38.3,20.3,29.80,SW,225,0.0,0.0,48,0.00,,,0.00,WUHU216HW,2013-01-05 22:59:00,
2013-01-05 18:04:00,38.3,20.3,29.80,SW,225,0.0,0.0,48,0.00,,,0.00,WUHU216HW,2013-01-05 23:04:00,
2013-01-05 18:30:00,36.5,20.2,29.79,NE,45,0.0,0.0,51,0.00,,,0.00,WUHU216HW,2013-01-05 23:30:00,
2013-01-05 18:35:00,36.5,20.2,29.79,NE,45,0.0,0.0,51,0.00,,,0.00,WUHU216HW,2013-01-05 23:35:00,
2013-01-05 19:00:00,34.9,19.9,29.78,SE,135,0.0,0.0,54,0.00,,,0.00,WUHU216HW,2013-01-06 00:00:00,
2013-01-05 19:05:00,34.9,19.9,29.78,SE,135,0.0,0.0,54,0.00,,,0.00,WUHU216HW,2013-01-06 00:05:00,
2013-01-05 19:30:00,34.2,20.1,29.79,WNW,293,0.7,0.7,56,0.00,,,0.00,WUHU216HW,2013-01-06 00:30:00,
2013-01-05 19:35:00,34.2,20.1,29.79,WNW,293,0.7,0.7,56,0.00,,,0.00,WUHU216HW,2013-01-06 00:35:00,
2013-01-05 19:59:00,34.2,21.3,29.77,SSW,203,0.0,0.0,59,0.00,,,0.00,WUHU216HW,2013-01-06 00:59:00,
2013-01-05 20:04:00,34.2,21.3,29.77,SSW,203,0.0,0.0,59,0.00,,,0.00,WUHU216HW,2013-01-06 01:04:00,
2013-01-05 20:30:00,33.8,22.1,29.76,NW,315,0.0,0.0,62,0.00,,,0.00,WUHU216HW,2013-01-06 01:30:00,
2013-01-05 20:35:00,33.8,22.1,29.76,NW,315,0.0,0.0,62,0.00,,,0.00,WUHU216HW,2013-01-06 01:35:00,
2013-01-05 21:00:00,33.5,22.1,29.76,West,270,0.7,0.7,63,0.00,,,0.00,WUHU216HW,2013-01-06 02:00:00,
2013-01-05 21:05:00,33.5,22.1,29.76,West,270,0.7,0.7,63,0.00,,,0.00,WUHU216HW,2013-01-06 02:05:00,
2013-01-05 21:30:00,33.3,22.8,29.75,West,270,0.4,0.4,65,0.00,,,0.00,WUHU216HW,2013-01-06 02:30:00,
2013-01-05 21:35:00,33.3,22.8,29.75,West,270,0.4,0.4,65,0.00,,,0.00,WUHU216HW,2013-01-06 02:35:00,
2013-01-05 22:00:00,33.8,23.6,29.75,West,270,0.7,0.7,66,0.00,,,0.00,WUHU216HW,2013-01-06 03:00:00,
2013-01-05 22:05:00,33.8,23.6,29.75,West,270,0.7,0.7,66,0.00,,,0.00,WUHU216HW,2013-01-06 03:05:00,
2013-01-05 22:30:00,34.2,23.9,29.74,NNE,23,0.0,0.0,66,0.00,,,0.00,WUHU216HW,2013-01-06 03:30:00,
2013-01-05 22:35:00,34.2,23.9,29.74,NNE,23,0.0,0.0,66,0.00,,,0.00,WUHU216HW,2013-01-06 03:35:00,
2013-01-05 23:00:00,34.4,24.8,29.72,WNW,293,0.0,0.0,68,0.00,,,0.00,WUHU216HW,2013-01-06 04:00:00,
2013-01-05 23:05:00,34.4,24.8,29.72,WNW,293,0.0,0.0,68,0.00,,,0.00,WUHU216HW,2013-01-06 04:05:00,
2013-01-05 23:30:00,34.6,24.7,29.72,NNW,338,0.0,0.0,67,0.00,,,0.00,WUHU216HW,2013-01-06 04:30:00,
2013-01-05 23:35:00,34.6,24.7,29.72,NNW,338,0.0,0.0,67,0.00,,,0.00,WUHU216HW,2013-01-06 04:35:00,
2013-01-05 23:59:00,35.1,25.2,29.73,NW,315,0.4,0.4,67,0.00,,,0.00,WUHU216HW,2013-01-06 04:59:00,